Location: Wooded Hills
(32.5240°N, 97.2692°W)
Time: 15:59:51
(UTC+00:00)

N. Korean satellite - Visible Passes

Search period start: 05 October 2022 00:00
Search period end: 15 October 2022 00:00
Orbit: 426 x 467 km, 97.3° (Epoch: 05 October)

Date Brightness Start Highest point End Pass type
(mag) Time Alt. Az. Time Alt. Az. Time Alt. Az.
05 Oct 6.3 11:51:41 10° N 11:54:54 58° WNW 11:58:06 10° SSW visible
06 Oct 8.2 11:15:53 10° NNE 11:18:53 33° E 11:21:52 10° SSE visible
08 Oct 6.5 11:36:03 10° NNE 11:39:19 75° E 11:42:35 10° S visible
09 Oct 9.3 11:00:38 10° NE 11:03:04 19° E 11:05:31 10° SE visible
10 Oct 6.5 11:56:19 10° N 11:59:28 48° WNW 12:02:39 10° SSW visible
11 Oct 7.9 11:20:06 10° NNE 11:23:11 39° E 11:26:18 10° S visible
12 Oct 9.9 10:45:35 10° ENE 10:46:42 11° E 10:47:48 10° ESE visible
13 Oct 6.3 11:39:44 10° NNE 11:43:02 86° ESE 11:46:20 10° S visible
14 Oct 9.1 11:03:53 10° NE 11:06:30 22° E 11:09:08 10° SSE visible
